TimeEST,TemperatureF,Dew PointF,Humidity,Sea Level PressureIn,VisibilityMPH,Wind Direction,Wind SpeedMPH,Gust SpeedMPH,PrecipitationIn,Events,Conditions,WindDirDegrees,DateUTC
12:56 AM,35.1,24.1,64,29.88,10.0,West,9.2,-,N/A,,Clear,270,2012-11-26 05:56:00
1:56 AM,35.1,24.1,64,29.90,10.0,WSW,10.4,-,N/A,,Clear,250,2012-11-26 06:56:00
2:56 AM,34.0,24.1,67,29.91,10.0,West,9.2,-,N/A,,Clear,270,2012-11-26 07:56:00
3:56 AM,34.0,24.1,67,29.93,10.0,West,5.8,-,N/A,,Mostly Cloudy,260,2012-11-26 08:56:00
4:56 AM,32.0,23.0,69,29.94,10.0,WNW,3.5,-,N/A,,Clear,300,2012-11-26 09:56:00
5:56 AM,27.0,21.0,78,29.95,10.0,West,3.5,-,N/A,,Clear,270,2012-11-26 10:56:00
6:56 AM,32.0,24.1,73,29.96,10.0,WSW,5.8,-,N/A,,Clear,250,2012-11-26 11:56:00
7:56 AM,36.0,26.1,67,29.97,10.0,West,8.1,-,N/A,,Clear,270,2012-11-26 12:56:00
8:56 AM,39.0,24.1,55,29.99,10.0,West,6.9,-,N/A,,Mostly Cloudy,260,2012-11-26 13:56:00
9:56 AM,43.0,24.1,47,30.00,10.0,West,10.4,24.2,N/A,,Clear,280,2012-11-26 14:56:00
10:56 AM,45.0,23.0,42,29.99,10.0,West,10.4,24.2,N/A,,Clear,280,2012-11-26 15:56:00
11:56 AM,46.0,23.0,40,29.99,10.0,West,10.4,21.9,N/A,,Clear,270,2012-11-26 16:56:00
12:56 PM,46.9,23.0,39,30.00,10.0,West,12.7,20.7,N/A,,Clear,280,2012-11-26 17:56:00
1:56 PM,46.9,21.9,37,30.01,10.0,WNW,11.5,17.3,N/A,,Clear,290,2012-11-26 18:56:00
2:56 PM,46.0,19.9,35,30.04,10.0,WNW,8.1,18.4,N/A,,Clear,300,2012-11-26 19:56:00
3:56 PM,43.0,21.0,42,30.08,10.0,WNW,8.1,-,N/A,,Clear,300,2012-11-26 20:56:00
4:56 PM,39.9,19.9,45,30.11,10.0,West,3.5,-,N/A,,Clear,270,2012-11-26 21:56:00
5:56 PM,37.9,21.0,51,30.14,10.0,West,4.6,-,N/A,,Clear,270,2012-11-26 22:56:00
6:56 PM,36.0,21.0,55,30.17,10.0,West,4.6,-,N/A,,Clear,270,2012-11-26 23:56:00
7:56 PM,37.0,21.9,54,30.19,10.0,West,5.8,-,N/A,,Clear,260,2012-11-27 00:56:00
8:56 PM,37.0,21.9,54,30.20,10.0,West,5.8,-,N/A,,Clear,270,2012-11-27 01:56:00
9:56 PM,35.1,21.9,59,30.22,10.0,West,4.6,-,N/A,,Clear,260,2012-11-27 02:56:00
10:56 PM,34.0,23.0,64,30.23,10.0,WNW,3.5,-,N/A,,Clear,290,2012-11-27 03:56:00
11:56 PM,28.0,19.9,72,30.24,10.0,NW,3.5,-,N/A,,Clear,310,2012-11-27 04:56:00